Flag for India Weather past 2 weeks in Jaipur, Rajasthan, India

Now
88 °F

Scattered clouds.


Feels Like: 102 °F
Forecast: 79 / 91 °F
Wind: 6 mph from Northwest

Location: Jaipur / Sanganer

Current Time: Aug 4, 2015 at 1:49:03 PM

Latest Report: Aug 4, 2015 at 1:00 PM


Visibility: 2 mi

Pressure: 29.65 "Hg

Humidity: 75%

Dew point: 79 °F

Location of JaipurLocation

Historic Weather in Jaipur — Graph

°F

Jaipur temperature yesterday

Maximum temperature yesterday: 86 °F (at 5:00 PM)
Minimum temperature yesterday: 77 °F (at 6:00 AM)
Average temperature yesterday: 81 °F

Past Weeks' High & Low Weather Summary

 TemperatureHumidityPressure
High95 °F (Jul 22, 4:00 PM)100% (Jul 21, 2:00 AM)29.77 "Hg (Jul 21, 2:00 AM)
Low73 °F (Jul 27, 2:00 AM)53% (Jul 22, 4:00 PM)29.42 "Hg (Jul 26, 4:00 PM)
Average82 °F84%29.61 "Hg
* Reported Jul 20 12:00 Noon — Aug 4 12:00 Noon, Jaipur, Weather by CustomWeather, © 2015

Note: Actual official high and low records may vary slightly from our data, if they occured in-between our weather recording intervals... More about our weather records

Advertising

Jaipur weather history for previous 24 hours

 ConditionsComfort  
Time TempWeatherWind HumidityBarometerVisibility
12:00 PM
Tue, Aug 4
86 °FScattered clouds.7 mph75%29.68 "Hg2 mi
11:00 AM84 °FBroken clouds.7 mph79%29.68 "Hg2 mi
10:00 AM82 °FBroken clouds.7 mph79%29.68 "Hg2 mi
8:00 AM79 °FBroken clouds.8 mph89%29.68 "Hg1 mi
7:00 AM79 °FScattered clouds.6 mph89%29.68 "Hg1 mi
6:00 AM79 °FPassing clouds.7 mph89%29.65 "Hg1 mi
5:00 AM81 °FPassing clouds.6 mph84%29.65 "Hg1 mi
4:00 AM81 °FPassing clouds.6 mph84%29.65 "Hg1 mi
1:00 AM81 °FPassing clouds.3 mph84%29.68 "Hg2 mi
12:00 AM81 °FPassing clouds.6 mph89%29.68 "Hg2 mi
10:00 PM
Mon, Aug 3
82 °FPassing clouds.3 mph84%29.71 "Hg2 mi
9:00 PM82 °FPassing clouds.5 mph84%29.71 "Hg2 mi
8:00 PM82 °FPassing clouds.5 mph84%29.68 "Hg2 mi
7:00 PM82 °FScattered clouds.7 mph79%29.68 "Hg2 mi
6:00 PM84 °FScattered clouds.9 mph84%29.65 "Hg2 mi
5:00 PM86 °FScattered clouds.9 mph79%29.65 "Hg2 mi
Weather by CustomWeather, © 2015

See weather overviewHow to use our weather pages